Regional Weather Roundup
Issued by NWS

Home | Current Version | Previous Version | Text Only | Print | Product List | Glossary On
Versions: 1 2 3 4 5 6 7 8 9 10 11 12 13 14 15 16 17 18 19 20 21 22 23 24 25 26 27 28 29 30 31 32 33 34 35 36 37 38 39 40 41 42 43 44 45 46 47 48 49 50
000
ASUS43 KMKX 300821
RWRWI

WISCONSIN REGIONAL WEATHER ROUNDUP
NATIONAL WEATHER SERVICE MILWAUKEE/SULLIVAN WI
300 AM CDT TUE JUN 30 2015

NOTE: "FAIR" INDICATES FEW OR NO CLOUDS BELOW 12,000 FEET WITH NO
SIGNIFICANT WEATHER AND/OR OBSTRUCTIONS TO VISIBILITY.

WIZ001-002-006>008-014>016-023>028-300900-
NORTHWEST WISCONSIN

CITY           SKY/WX    TMP DP  RH WIND       PRES   REMARKS
SUPERIOR ARPT  CLOUDY    60  59  97 CALM      29.87S
ASHLAND        CLOUDY    58  58 100 NE13G23   29.88R FOG
HAYWARD        MOCLDY    55  54  96 NE5       29.87R FOG
SIREN          CLEAR     58  57  97 N3        29.87R
CUMBERLAND     FOG       59  59 100 N3        29.86R VSB 1/4
RICE LAKE      FOG       57  56  96 W3        29.86S VSB 1/2
CHETEK         PTCLDY    58  58 100 W3        29.85S FOG
LADYSMITH      CLOUDY    60  59  96 N7        29.85F FOG
EAU CLAIRE     FOG       54  53  97 CALM      29.82S VSB 1/4
MENOMONIE      CLEAR     59  58  97 CALM      29.84S FOG
NEW RICHMOND   MOCLDY    59  59 100 CALM      29.85S FOG
OSCEOLA        MOCLDY    60  60 100 CALM      29.88R FOG
$$

WIZ003>005-009-010-017-018-300900-
NORTH CENTRAL WISCONSIN

CITY           SKY/WX    TMP DP  RH WIND       PRES   REMARKS
MANITOWISH WTR CLOUDY    58  58 100 N6        29.84F
ARBOR VITAE    CLOUDY    59  57  92 N9        29.84S
WOODRUFF       CLOUDY    59  57  92 N9        29.84S
RHINELANDER    MOCLDY    59  57  93 N3        29.83S
EAGLE RIVER    CLOUDY    58  58 100 N6        29.82S
LAND O LAKES   CLOUDY    58  58  97 N12       29.84S
PHILLIPS       CLOUDY    58  57  96 N8        29.84S
TOMAHAWK       MOCLDY    57  56  97 NW5       29.83S FOG
MEDFORD        CLOUDY    58  57  99 N6        29.82S FOG
MERRILL        CLOUDY    60  60 100 N5        29.82S FOG
$$

WIZ029-030-035-036-043>047-300900-
CENTRAL WISCONSIN

CITY           SKY/WX    TMP DP  RH WIND       PRES   REMARKS
WAUSAU         CLOUDY    61  59  93 N8        29.79F
MOSINEE        NOT AVBL
MARSHFIELD     CLEAR     58  55  90 NW6       29.81S FOG
STEVENS POINT  MOCLDY    56  56  98 CALM      29.80S FOG
WAUPACA        CLEAR     59  59  99 CALM      29.78F FOG
WAUTOMA        CLEAR     57  57 100 CALM      29.79F FOG
WISC RAPIDS    CLEAR     56  54  93 W3        29.81S FOG
CAMP DOUGLAS   FOG       54  54 100 W6        29.80S VSB 1/2
$$

WIZ011>013-019>022-031-037>040-048>050-300900-
NORTHEAST WISCONSIN

CITY           SKY/WX    TMP DP  RH WIND       PRES   REMARKS
ANTIGO         PTCLDY    55  55 100 N5        29.81S FOG
SHAWANO        CLOUDY    60  59  95 CALM      29.77S
OCONTO         CLOUDY    62  62 100 NE3       29.75F
STURGEON BAY   CLOUDY    61  57  88 E6        29.78S VSB 1/2
GREEN BAY      CLOUDY    62  61  96 NW8       29.76S
MANITOWOC      MOCLDY    62  61  96 MISG      29.75S
APPLETON       CLOUDY    57  57 100 W5        29.77F FOG
CLINTONVILLE   CLEAR    N/A N/A N/A N3        29.77F
OSHKOSH        CLEAR     60  57  89 W6        29.77S
$$

WIZ032>034-041-042-053>061-300900-
SOUTHWEST WISCONSIN

CITY           SKY/WX    TMP DP  RH WIND       PRES   REMARKS
LA CROSSE      FOG       60  60 100 N6        29.82S VSB 1
SPARTA         FOG       53  53  98 CALM      29.83S VSB 1/2
VIROQUA        CLEAR     57  57 100 W3        29.83S
BOSCOBEL       FOG       59  57  93 CALM      29.82R VSB 1
PRAIRIE DU CHI CLEAR     59  58  96 CALM      29.82S FOG
PLATTEVILLE    CLEAR     59  58  97 W5        29.81F
$$

WIZ056-057-062-063-064-067-068-300900-
SOUTH CENTRAL WISCONSIN

CITY           SKY/WX    TMP DP  RH WIND       PRES   REMARKS
REEDSBURG      FOG       56  56 100 CALM      29.80F VSB 1/4
BARABOO/DELLS  FOG       57  56  95 CALM      29.80F VSB 1/4
LONE ROCK      CLOUDY    58  57  97 CALM      29.82R FOG
MINERAL POINT    N/A     59  57  94 NW3       29.81S FOG
MADISON        CLEAR     60  58  92 NW6       29.79S
MIDDLETON      CLEAR     60  60  99 W7        29.80F
WATERTOWN      PTCLDY    58  58 100 CALM      29.77F
MONROE         CLEAR     61  59  94 NW6       29.79F
JANESVILLE     PTCLDY    59  57  94 W5        29.78S FOG
$$

WIZ051-052-058>065-066-070>072-300900-
SOUTHEAST WISCONSIN

CITY           SKY/WX    TMP DP  RH WIND       PRES   REMARKS
MILWAUKEE      CLOUDY    64  61  90 W3        29.76F
WAUKESHA       MOCLDY    59  59 100 W5        29.78F
MILWAUKEE/TIMM CLOUDY    63  55  77 W3        29.77F
RACINE         MOCLDY    63  60  90 CALM      29.77F FOG
BURLINGTON     MOCLDY    59  58  97 NW7       29.77F
KENOSHA        MOCLDY    61  59  93 W5        29.77S FOG
FOND DU LAC    CLEAR     60  58  92 W6        29.77F
SHEBOYGAN      PTCLDY    61  58  90 W8        29.75F
WEST BEND      PTCLDY    61  55  82 W6        29.77F
JUNEAU         CLEAR     59  58  94 W3        29.79S
$$

LSZ147-162-300900-
LAKE SUPERIOR

STATION/POSITION TIME  TEMP    WIND        PRES    WAVE
                       AIR SEA DIR/SP/G            HT/PER
                 (UTC) (F)     (DEG/KT/KT) (MB)    (FT/S)
W MID LAKE BUOY  0750   42 38   50/  8/ 10 1012.3R   1
DEVILS ISLAND    0800   56      70/ 13/ 16 1012.1R
SAXON HARBOR     0740   59      30/ 12/ 14 1011.5R
$$

LMZ867-665-643>646-300900-
LAKE MICHIGAN

STATION/POSITION TIME  TEMP    WIND        PRES    WAVE
                       AIR SEA DIR/SP/G            HT/PER
                 (UTC) (F)     (DEG/KT/KT) (MB)    (FT/S)
CHAMBERS ISLAND  0700   65      20/  8/  9 1008.1R
S GREEN BAY BUOY 0700   67 71  330/  2/  4 1008.7R
N MID LAKE BUOY  0750   57 54  220/  8/  8 1008.4R   1
NORTHPORT PIER   0700   61     180/  4/  6 1008.1S
SISTER BAY       0614   61        CALM       N/A
ALGOMA LAKESHORE 0710             CALM       N/A
KEWAUNEE LAKESHO 0700   59     180/  6/  8 1006.8F
SHEBOYGAN LAKESH 0800   62     230/  5/  5 1007.6F
PORT WASHINGTON  0700   61     190/  3/  4 1009.1R
ATWATER BUOY     0800   60 59  180/  4/  4 1009.1F
MILWAUKEE LAKESH 0800   61      CALM  /  1   N/A
KENOSHA   LAKESH 0800   62     180/  2/  3 1007.8F
$$

TC  - TEMPERATURE IN CELSIUS
VSB - VISIBILITY IN STATUTE MILES
WCI - WIND CHILL INDEX
HX  - HEAT INDEX




USA.gov is the U.S. government's official web portal to all federal, state and local government web resources and services.